West Memphis, AR

6:58 PM CDT on April 23, 2017 (GMT -0500)
West Memphis Municipal

Weather History for KAWM - December, 2013

Change the Weather History Date:

Saturday, December 21, 2013

  Actual Average Record
Temperature  
Mean Temperature 60 °F -  
Max Temperature 70 °F 51 °F 72 °F (1967)
Min Temperature 51 °F 32 °F 12 °F (1963)
Degree Days  
Heating Degree Days 4    
Growing Degree Days 10 (Base 50)    
Moisture  
Dew Point 64 °F    
Average Humidity 87    
Maximum Humidity 100    
Minimum Humidity 78    
Precipitation  
Precipitation 3.35 in - - ()
Sea Level Pressure  
Sea Level Pressure 29.58 in    
Wind  
Wind Speed 19 mph (SSW)    
Max Wind Speed 29 mph    
Max Gust Speed 43 mph    
Visibility 6 miles    
Events Rain , Thunderstorm    
Averages and records for this station are not official NWS values.
T = Trace of Precipitation, MM = Missing Value Source: NWS Daily Summary

Daily Weather History Graph

Daily Weather History Graph

Search for Another Location

Airport or City:

Trip Planner

Search our weather history database for the weather conditions in past years. The results will help you decide how hot, cold, wet, or windy it might be!

Date:

Astronomy

Dec. 21, 2013 Rise Set
Actual Time 7:05 AM CST 4:52 PM CST
Civil Twilight 6:37 AM CST 5:21 PM CST
Nautical Twilight 6:05 AM CST 5:52 PM CST
Astronomical Twilight 5:34 AM CST 6:23 PM CST
Moon 9:00 PM CST (12/21) 9:39 AM CST (12/21)
Length of Visible Light 10h 43m
Length of Day
9h 47m
Waning Gibbous, 84% of the Moon is Illuminated
Dec 21
Waning Gibbous
Dec 25
Last Quarter
Jan 1
New
Jan 7
First Quarter
Jan 15
Full

Hourly Weather History & Observations

Time (CST) Temp. Dew Point Humidity Pressure Visibility Wind Dir Wind Speed Gust Speed Precip Events Conditions
12:02 AM 66.2 °F 64.4 °F 94% 29.78 in 10.0 mi South 21.9 mph 29.9 mph N/A   Overcast
12:42 AM 66.2 °F 64.4 °F 94% 29.76 in 10.0 mi South 20.7 mph 29.9 mph N/A   Mostly Cloudy
12:53 AM 66.9 °F 64.0 °F 90% 29.75 in 10.0 mi South 23.0 mph 32.2 mph N/A   Overcast
1:53 AM 66.9 °F 64.0 °F 90% 29.75 in 6.0 mi South 19.6 mph 27.6 mph 0.04 in Rain Rain
2:53 AM 66.9 °F 63.0 °F 87% 29.73 in 10.0 mi South 23.0 mph 32.2 mph 0.00 in   Overcast
3:21 AM 66.2 °F 62.6 °F 88% 29.73 in 10.0 mi South 21.9 mph 35.7 mph N/A   Overcast
3:53 AM 66.9 °F 62.1 °F 84% 29.70 in 10.0 mi South 26.5 mph 35.7 mph N/A   Overcast
4:53 AM 66.9 °F 62.1 °F 84% 29.68 in 10.0 mi South 23.0 mph 32.2 mph N/A   Mostly Cloudy
5:53 AM 66.9 °F 62.1 °F 84% 29.66 in 10.0 mi South 21.9 mph 28.8 mph N/A   Scattered Clouds
6:53 AM 66.9 °F 62.1 °F 84% 29.66 in 10.0 mi South 24.2 mph 33.4 mph N/A   Mostly Cloudy
7:53 AM 66.9 °F 62.1 °F 84% 29.66 in 10.0 mi South 25.3 mph 32.2 mph N/A   Overcast
8:53 AM 66.9 °F 62.1 °F 84% 29.68 in 10.0 mi South 19.6 mph 32.2 mph N/A   Overcast
9:53 AM 66.9 °F 62.1 °F 84% 29.71 in 10.0 mi South 18.4 mph - 0.00 in Rain Light Rain
10:33 AM 66.2 °F 62.6 °F 88% 29.66 in 10.0 mi SSE 20.7 mph 26.5 mph 0.00 in Rain , Thunderstorm Light Rain
10:48 AM 66.2 °F 62.6 °F 88% 29.63 in 10.0 mi SSE 25.3 mph 31.1 mph 0.01 in Rain Light Rain
10:53 AM 68.0 °F 63.0 °F 84% 29.62 in 10.0 mi South 26.5 mph 36.8 mph 0.01 in Rain Light Rain
11:44 AM 69.8 °F 62.6 °F 78% 29.60 in 10.0 mi South 27.6 mph 42.6 mph 0.00 in   Overcast
11:53 AM 70.0 °F 64.0 °F 81% 29.58 in 10.0 mi South 25.3 mph 41.4 mph 0.00 in   Overcast
12:53 PM 70.0 °F 64.0 °F 81% 29.52 in 9.0 mi South 23.0 mph 31.1 mph 0.01 in Rain , Thunderstorm Light Rain
1:04 PM 69.8 °F 64.4 °F 83% 29.52 in 2.5 mi South 23.0 mph 35.7 mph 0.05 in Rain Rain
1:14 PM 69.8 °F 64.4 °F 83% 29.52 in 2.5 mi South 24.2 mph 34.5 mph 0.12 in Rain , Thunderstorm Thunderstorms and Rain
1:20 PM 69.8 °F 64.4 °F 83% 29.51 in 3.0 mi South 19.6 mph 33.4 mph 0.14 in Rain , Thunderstorm Thunderstorms and Rain
1:33 PM 69.8 °F 64.4 °F 83% 29.50 in 6.0 mi South 24.2 mph 35.7 mph 0.15 in Rain Light Rain
1:49 PM 69.8 °F 66.2 °F 88% 29.50 in 8.0 mi South 28.8 mph 38.0 mph 0.16 in Rain Light Rain
1:53 PM 69.1 °F 66.0 °F 90% 29.49 in 9.0 mi South 28.8 mph 39.1 mph 0.16 in Rain Light Rain
2:45 PM 69.8 °F 64.4 °F 83% 29.49 in 3.0 mi South 24.2 mph 34.5 mph 0.07 in Rain , Thunderstorm Light Thunderstorms and Rain
2:53 PM 70.0 °F 66.0 °F 87% 29.47 in 2.5 mi South 23.0 mph 34.5 mph 0.09 in Rain , Thunderstorm Light Thunderstorms and Rain
3:00 PM 69.8 °F 64.4 °F 83% 29.48 in 6.0 mi South 20.7 mph 29.9 mph 0.01 in Rain , Thunderstorm Light Thunderstorms and Rain
3:12 PM 69.8 °F 64.4 °F 83% 29.46 in 7.0 mi South 17.3 mph 25.3 mph 0.02 in Rain Light Rain
3:26 PM 69.8 °F 66.2 °F 88% 29.43 in 6.0 mi South 19.6 mph - 0.03 in Rain , Thunderstorm Light Rain
3:45 PM 66.2 °F 66.2 °F 100% 29.51 in 1.8 mi SW 23.0 mph 41.4 mph 0.23 in Rain , Thunderstorm Heavy Thunderstorms and Rain
3:47 PM 66.2 °F 64.4 °F 94% 29.51 in 1.2 mi SW 26.5 mph 41.4 mph 0.29 in Rain , Thunderstorm Heavy Thunderstorms and Rain
3:53 PM 66.0 °F 64.9 °F 96% 29.50 in 1.2 mi SW 18.4 mph 39.1 mph 0.41 in Rain , Thunderstorm Heavy Thunderstorms and Rain
3:59 PM 66.2 °F 64.4 °F 94% 29.51 in 2.0 mi WSW 16.1 mph 29.9 mph 0.04 in Rain , Thunderstorm Heavy Rain
4:08 PM 66.2 °F 66.2 °F 100% 29.50 in 10.0 mi SW 15.0 mph 24.2 mph 0.06 in Rain , Thunderstorm Light Rain
4:14 PM 66.2 °F 66.2 °F 100% 29.51 in 1.8 mi SW 13.8 mph 23.0 mph 0.25 in Rain Heavy Rain
4:23 PM 66.2 °F - N/A% 29.51 in 2.0 mi SW 10.4 mph 27.6 mph 0.32 in Rain , Thunderstorm Thunderstorms and Rain
4:39 PM 66.2 °F - N/A% 29.50 in 1.5 mi SW 16.1 mph 33.4 mph 0.60 in Rain , Thunderstorm Heavy Thunderstorms and Rain
4:53 PM 64.9 °F - N/A% 29.47 in 1.2 mi SW 12.7 mph 25.3 mph 0.89 in Rain , Thunderstorm Heavy Thunderstorms and Rain
5:01 PM 64.4 °F - N/A% 29.48 in 3.0 mi SW 10.4 mph 20.7 mph 0.05 in Rain , Thunderstorm Heavy Thunderstorms and Rain
5:08 PM 64.4 °F - N/A% 29.50 in 1.8 mi WSW 10.4 mph 20.7 mph 0.25 in Rain , Thunderstorm Heavy Thunderstorms and Rain
5:18 PM 64.4 °F - N/A% 29.47 in - SW 10.4 mph 19.6 mph 0.51 in Rain , Thunderstorm Heavy Thunderstorms and Rain
5:32 PM 66.2 °F - N/A% 29.47 in 1.8 mi WSW 12.7 mph 24.2 mph 0.71 in Rain , Thunderstorm Heavy Thunderstorms and Rain
5:43 PM 64.4 °F - N/A% 29.55 in 1.2 mi WSW 15.0 mph 23.0 mph 1.01 in Rain , Thunderstorm Heavy Thunderstorms and Rain
5:48 PM 64.4 °F - N/A% 29.51 in 0.8 mi West 18.4 mph 34.5 mph 1.26 in Rain , Thunderstorm Heavy Thunderstorms and Rain
5:53 PM 57.9 °F - N/A% 29.49 in 0.8 mi NW 16.1 mph 34.5 mph 1.35 in Rain , Thunderstorm Heavy Thunderstorms and Rain
5:55 PM 55.4 °F - N/A% 29.51 in 1.0 mi NW 15.0 mph 34.5 mph 0.01 in Rain , Thunderstorm Heavy Thunderstorms and Rain
6:00 PM 55.4 °F - N/A% 29.51 in 3.0 mi Variable 4.6 mph 26.5 mph 0.02 in Rain , Thunderstorm Light Thunderstorms and Rain
6:09 PM 55.4 °F - N/A% 29.54 in 4.0 mi Variable 6.9 mph - 0.06 in Rain , Thunderstorm Thunderstorms and Rain
6:31 PM 53.6 °F - N/A% 29.54 in 6.0 mi NW 6.9 mph - 0.12 in Rain Rain
6:40 PM 53.6 °F - N/A% 29.57 in 7.0 mi NW 5.8 mph - 0.14 in Rain , Thunderstorm Light Thunderstorms and Rain
6:50 PM 53.6 °F - N/A% 29.59 in 7.0 mi NW 5.8 mph - 0.17 in Rain , Thunderstorm Rain
6:53 PM 53.1 °F - N/A% 29.59 in 6.0 mi WNW 4.6 mph - 0.18 in Rain , Thunderstorm Rain
7:06 PM 51.8 °F - N/A% 29.60 in 0.8 mi Calm Calm - 0.05 in Rain , Thunderstorm Rain
7:08 PM 51.8 °F - N/A% 29.61 in 0.2 mi West 3.5 mph - 0.06 in Rain , Thunderstorm Rain
7:18 PM 51.8 °F - N/A% 29.62 in 1.2 mi West 6.9 mph - 0.07 in Rain , Thunderstorm Light Rain
7:20 PM 51.8 °F - N/A% 29.62 in 4.0 mi West 5.8 mph - 0.08 in Rain , Thunderstorm Light Rain
7:28 PM 51.8 °F - N/A% 29.62 in 10.0 mi WNW 8.1 mph - 0.08 in Rain Light Rain
7:53 PM 51.1 °F - N/A% 29.60 in 8.0 mi Variable 3.5 mph - 0.14 in Rain Light Rain
8:37 PM 51.8 °F - N/A% 29.62 in 10.0 mi Calm Calm - 0.05 in Rain Light Rain
8:53 PM 51.1 °F - N/A% 29.61 in 10.0 mi South 4.6 mph - 0.05 in Rain Light Rain
9:21 PM 51.8 °F - N/A% 29.63 in 10.0 mi SSW 4.6 mph - 0.01 in Rain Light Rain
9:53 PM 52.0 °F - N/A% 29.65 in 10.0 mi South 9.2 mph - 0.02 in   Mostly Cloudy
10:40 PM 51.8 °F - N/A% 29.68 in 10.0 mi Variable 6.9 mph - N/A   Mostly Cloudy
10:53 PM 52.0 °F - N/A% 29.70 in 10.0 mi West 8.1 mph - N/A   Overcast
11:53 PM 51.1 °F - N/A% 29.73 in 10.0 mi Variable 3.5 mph - N/A   Overcast